Overview Statistics Trail Chart Weather Telemetry Raw packets
 

This is the latest recevied weather packets stored in our database for station/object HOWARD. If no packets are shown the sender has not sent any weather packets the latest 10 day(s).

<< 45 46 47 48 49 50 51 >>
Time Temp. Humidity Pressure Rain* Wind** Luminosity Snow
1788012278 9.44° C 54% 1013.2 hPa 0 mm - - -
1788011678 9.44° C 56% 1013.4 hPa 0 mm - - -
1788011078 9.44° C 54% 1013.3 hPa 0 mm - - -
1788010478 9.44° C 53% 1013.1 hPa 0 mm - - -
1788009878 9.44° C 55% 1013.3 hPa 0 mm - - -
1788009278 9.44° C 55% 1013.2 hPa 0 mm - - -
1788008678 9.44° C 56% 1013.1 hPa 0 mm - - -
1788008139 9.44° C 53% 1013.1 hPa 0 mm - - -
1788008078 9.44° C 53% 1013.1 hPa 0 mm - - -
1788007530 9.44° C 53% 1013.1 hPa 0 mm - - -
1788007478 9.44° C 53% 1013.1 hPa 0 mm - - -
1788006878 9.44° C 53% 1013 hPa 0 mm - - -
1788006278 9.44° C 56% 1013 hPa 0 mm - - -
1788005728 9.44° C 58% 1013 hPa 0 mm - - -
1788005678 9.44° C 58% 1013 hPa 0 mm - - -
1788005078 9.44° C 59% 1013.1 hPa 0 mm - - -
1788004478 9.44° C 63% 1013.2 hPa 0 mm - - -
1788003920 9.44° C 67% 1013.3 hPa 0 mm - - -
1788003878 9.44° C 67% 1013.3 hPa 0 mm - - -
1788003279 8.89° C 66% 1013.5 hPa 0 mm - - -
1788002678 8.89° C 70% 1013.5 hPa 0 mm - - -
1788002078 8.89° C 70% 1013.6 hPa 0 mm - - -
1788001478 8.89° C 71% 1013.8 hPa 0 mm - - -
1788000878 9.44° C 69% 1013.9 hPa 0 mm - - -
1788000278 9.44° C 70% 1013.9 hPa 0 mm - - -

* Rain latest hour (hover to see other rain measurements)
** Current wind speed in m/s (hover to see current wind gust speed)